EW2804 Weather Reports


time (UTC)temp
C
wind
direction
speed
KPH
gust
KPH
rain 1hr
cm
rain 24hr
cm
rain mn
cm
humidity
%
barometer
mb
20260508113033 15 138 0.0 0.0 0.00 0.13 0.13 86 1013.4
20260508112020 15 138 0.0 1.6 0.00 0.13 0.13 86 1013.2
20260508110947 15 138 0.0 11.3 0.00 0.13 0.13 86 1013.3
20260508105927 15 138 0.0 4.8 0.00 0.13 0.13 86 1013.0
20260508104915 16 101 0.0 11.3 0.00 0.13 0.13 86 1012.8
20260508103843 16 173 0.0 1.6 0.00 0.13 0.13 86 1012.8
20260508095422 16 173 0.0 0.0 0.00 0.03 0.03 84 1013.2
20260508094356 16 173 0.0 0.0 0.00 0.03 0.03 84 1012.6
20260508092218 16 173 0.0 0.0 0.00 0.03 0.03 83 1012.5
20260508091232 16 173 0.0 0.0 0.00 0.03 0.03 83 1012.6
20260508090228 16 173 0.0 0.0 0.00 0.00 0.00 83 1012.8
20260508085208 16 173 0.0 0.0 0.00 0.00 0.00 83 1012.5
20260508084157 16 173 0.0 0.0 0.00 0.00 0.00 82 1012.8
20260508082105 16 259 0.0 4.8 0.00 0.00 0.00 81 1013.0
20260508081038 16 122 0.0 4.8 0.00 0.00 0.00 80 1013.2
20260508080039 16 237 0.0 4.8 0.00 0.00 0.00 79 1014.0
20260508075004 16 153 0.0 3.2 0.00 0.00 0.00 79 1013.7
20260508073948 16 260 0.0 0.0 0.00 0.00 0.00 80 1013.9
20260508072951 16 260 0.0 0.0 0.00 0.00 0.00 80 1014.0
20260508071917 16 260 0.0 0.0 0.00 0.00 0.00 81 1014.8
20260508070858 16 260 0.0 0.0 0.00 0.00 0.00 81 1014.5
20260508065904 15 261 0.0 0.0 0.00 0.00 0.00 81 1014.3
20260508064851 15 261 0.0 0.0 0.00 0.00 0.00 80 1014.1
20260508063821 15 261 0.0 0.0 0.00 0.00 0.00 81 1014.4
20260508062840 15 261 0.0 0.0 0.00 0.00 0.00 80 1014.6
20260508061856 15 261 0.0 0.0 0.00 0.00 0.00 79 1014.6
20260508060903 15 261 0.0 0.0 0.00 0.00 0.00 80 1014.8
20260508055838 15 261 0.0 0.0 0.00 0.00 0.00 80 1014.8
20260508054848 15 261 0.0 0.0 0.00 0.00 0.00 79 1014.6
20260508052708 15 261 0.0 0.0 0.00 0.00 0.00 78 1014.4
20260508051729 16 260 0.0 0.0 0.00 0.00 0.00 78 1014.5
20260508050746 16 260 0.0 0.0 0.00 0.00 0.00 78 1014.5
20260508045753 16 260 0.0 0.0 0.00 0.00 0.00 78 1014.6
20260508044811 16 260 0.0 0.0 0.00 0.00 0.00 78 1014.7
20260508043801 15 260 0.0 0.0 0.00 0.00 0.00 78 1014.7
20260508042821 15 260 0.0 0.0 0.00 0.00 0.00 78 1014.5
20260508041835 15 261 0.0 0.0 0.00 0.00 0.00 78 1014.5
20260508040857 15 261 0.0 0.0 0.00 0.00 0.00 77 1014.6
20260508034743 15 261 0.0 0.0 0.00 0.00 0.00 76 1014.5
20260508033750 16 261 0.0 0.0 0.00 0.00 0.00 75 1014.5
20260508032805 16 261 0.0 0.0 0.00 0.00 0.00 74 1014.5
20260508031748 16 261 0.0 0.0 0.00 0.00 0.00 72 1014.3
20260508030725 16 260 0.0 0.0 0.00 0.00 0.00 71 1014.3
20260508024529 17 260 0.0 0.0 0.00 0.00 0.00 69 1014.0
20260508023451 17 261 0.0 0.0 0.00 0.00 0.00 67 1013.9
20260508022424 18 261 0.0 0.0 0.00 0.00 0.00 65 1013.9
20260508021437 18 261 0.0 0.0 0.00 0.00 0.00 64 1013.7
20260508015310 18 261 0.0 0.0 0.00 0.00 0.00 62 1013.6
20260508014233 19 261 0.0 0.0 0.00 0.00 0.00 61 1013.4
20260508013203 19 261 0.0 0.0 0.00 0.00 0.00 60 1013.5
20260508012225 19 261 0.0 1.6 0.00 0.00 0.00 60 1013.5
20260508011213 20 261 0.0 4.8 0.00 0.00 0.00 59 1013.4
20260508010138 20 132 0.0 4.8 0.00 0.00 0.00 58 1013.6
20260508005121 20 119 0.0 3.2 0.00 0.00 0.00 58 1013.5
20260508004103 21 136 0.0 6.4 0.00 0.00 0.00 56 1013.1
20260508001853 21 40 0.0 0.0 0.00 0.00 0.00 58 1013.5
20260508000859 21 39 0.0 0.0 0.00 0.00 0.00 57 1013.5
20260507235843 22 39 0.0 0.0 0.00 0.00 0.00 53 1013.7
20260507234836 22 39 0.0 1.6 0.00 0.00 0.00 50 1013.6
20260507232726 22 38 0.0 3.2 0.00 0.00 0.00 45 1013.6
20260507231651 22 39 0.0 0.0 0.00 0.00 0.00 50 1013.7
20260507225504 22 39 0.0 1.6 0.00 0.00 0.00 45 1013.9
20260507224453 22 39 0.0 6.4 0.00 0.00 0.00 46 1014.0
20260507223511 22 51 0.0 4.8 0.00 0.00 0.00 48 1014.1
20260507222502 22 50 1.6 6.4 0.00 0.00 0.00 46 1014.2
20260507221433 22 30 1.6 6.4 0.00 0.00 0.00 49 1014.3
20260507220408 22 349 1.6 6.4 0.00 0.00 0.00 46 1014.3
20260507214223 22 38 0.0 0.0 0.00 0.00 0.00 46 1014.5
20260507213223 22 38 0.0 8.0 0.00 0.00 0.00 45 1014.6
20260507210008 22 276 1.6 8.0 0.00 0.00 0.00 47 1015.0
20260507205024 23 69 1.6 6.4 0.00 0.00 0.00 45 1014.9
20260507204019 22 331 1.6 6.4 0.00 0.00 0.00 45 1014.9
20260507203006 22 355 3.2 14.5 0.00 0.00 0.00 47 1015.2
20260507202018 22 15 3.2 14.5 0.00 0.00 0.00 46 1015.2
20260507201038 22 57 3.2 12.9 0.00 0.00 0.00 46 1015.4
20260507200005 22 40 1.6 16.1 0.00 0.00 0.00 45 1015.6
20260507195010 22 5 3.2 16.1 0.00 0.00 0.00 47 1015.7
20260507194020 22 47 4.8 14.5 0.00 0.00 0.00 45 1015.8
20260507192946 22 351 3.2 19.3 0.00 0.00 0.00 46 1015.8
20260507191929 22 355 4.8 19.3 0.00 0.00 0.00 50 1016.1
20260507190925 22 49 3.2 9.7 0.00 0.00 0.00 44 1016.4
20260507185852 21 36 3.2 22.5 0.00 0.00 0.00 45 1016.5
20260507184825 21 49 3.2 22.5 0.00 0.00 0.00 45 1016.4
20260507183749 21 48 3.2 17.7 0.00 0.00 0.00 46 1016.5
20260507182747 21 57 3.2 17.7 0.00 0.00 0.00 44 1016.6
20260507181711 21 344 3.2 11.3 0.00 0.00 0.00 51 1016.8
20260507180640 21 49 3.2 14.5 0.00 0.00 0.00 51 1017.0
20260507175653 20 46 3.2 14.5 0.00 0.00 0.00 51 1017.2
20260507174624 20 36 4.8 14.5 0.00 0.00 0.00 49 1017.5
20260507172454 20 9 3.2 9.7 0.00 0.00 0.00 53 1018.1
20260507171505 20 55 1.6 9.7 0.00 0.00 0.00 50 1018.3
20260507170512 20 32 1.6 9.7 0.00 0.00 0.00 55 1018.5
20260507165500 19 80 1.6 12.9 0.00 0.00 0.00 55 1018.6
20260507164519 19 42 3.2 12.9 0.00 0.00 0.00 52 1018.8
20260507163538 19 52 3.2 11.3 0.00 0.00 0.00 56 1018.8
20260507162519 18 91 1.6 9.7 0.00 0.00 0.00 55 1018.9
20260507160410 18 345 1.6 11.3 0.00 0.00 0.00 59 1019.0
20260507154255 17 37 1.6 8.0 0.00 0.00 0.00 63 1019.1
20260507152156 17 61 0.0 8.0 0.00 0.00 0.00 67 1019.3
20260507150041 16 45 1.6 6.4 0.00 0.08 0.00 66 1019.5
20260507143908 15 0 1.6 6.4 0.00 0.08 0.00 70 1019.6
20260507141809 15 49 1.6 4.8 0.00 0.08 0.00 73 1019.8
20260507140753 14 28 0.0 3.2 0.00 0.08 0.00 75 1019.9
20260507135746 13 0 0.0 1.6 0.00 0.08 0.00 78 1020.0
20260507134738 13 44 1.6 6.4 0.00 0.08 0.00 76 1019.9
20260507133709 12 343 0.0 0.0 0.00 0.08 0.00 81 1020.1
20260507130328 11 0 0.0 4.8 0.00 0.08 0.00 85 1019.8
20260507125252 11 52 0.0 0.0 0.00 0.08 0.00 86 1019.8
20260507124250 10 52 0.0 0.0 0.00 0.08 0.00 86 1019.8
20260507122055 10 43 0.0 0.0 0.00 0.08 0.00 85 1019.4
20260507121115 10 44 0.0 0.0 0.00 0.08 0.00 85 1019.3